TimeEDT,TemperatureF,Dew PointF,Humidity,Sea Level PressureIn,VisibilityMPH,Wind Direction,Wind SpeedMPH,Gust SpeedMPH,PrecipitationIn,Events,Conditions,WindDirDegrees,DateUTC
12:53 AM,66.0,59.0,78,30.09,10.0,Calm,Calm,-,N/A,,Clear,0,2013-05-08 04:53:00
1:53 AM,64.0,59.0,84,30.08,10.0,Calm,Calm,-,N/A,,Clear,0,2013-05-08 05:53:00
2:53 AM,64.0,59.0,84,30.07,10.0,Calm,Calm,-,N/A,,Clear,0,2013-05-08 06:53:00
3:53 AM,62.1,57.9,86,30.06,10.0,Calm,Calm,-,N/A,,Clear,0,2013-05-08 07:53:00
4:53 AM,62.1,59.0,90,30.07,10.0,Calm,Calm,-,N/A,,Clear,0,2013-05-08 08:53:00
5:53 AM,62.1,59.0,90,30.08,10.0,Calm,Calm,-,N/A,,Clear,0,2013-05-08 09:53:00
6:53 AM,62.1,59.0,90,30.10,10.0,SE,3.5,-,N/A,,Clear,130,2013-05-08 10:53:00
7:53 AM,66.9,60.1,79,30.12,10.0,Calm,Calm,-,N/A,,Clear,0,2013-05-08 11:53:00
8:53 AM,71.1,60.1,68,30.14,10.0,SE,3.5,-,N/A,,Clear,130,2013-05-08 12:53:00
9:53 AM,73.9,60.1,62,30.14,10.0,Calm,Calm,-,N/A,,Partly Cloudy,0,2013-05-08 13:53:00
10:53 AM,75.9,57.0,52,30.15,10.0,SSE,3.5,-,N/A,,Scattered Clouds,160,2013-05-08 14:53:00
11:53 AM,75.9,57.9,54,30.15,10.0,Calm,Calm,-,N/A,,Partly Cloudy,0,2013-05-08 15:53:00
12:53 PM,80.1,57.0,45,30.14,10.0,WNW,8.1,-,N/A,,Mostly Cloudy,290,2013-05-08 16:53:00
1:53 PM,81.0,57.0,44,30.13,10.0,Variable,6.9,16.1,N/A,,Clear,0,2013-05-08 17:53:00
2:53 PM,81.0,57.0,44,30.12,10.0,West,11.5,16.1,N/A,,Clear,280,2013-05-08 18:53:00
3:53 PM,81.0,53.1,38,30.10,10.0,SW,11.5,-,N/A,,Clear,230,2013-05-08 19:53:00
4:53 PM,81.0,52.0,36,30.10,10.0,WNW,10.4,-,N/A,,Clear,290,2013-05-08 20:53:00
5:53 PM,81.0,46.9,30,30.09,10.0,West,6.9,-,N/A,,Clear,280,2013-05-08 21:53:00
6:53 PM,79.0,52.0,39,30.09,10.0,WNW,6.9,-,N/A,,Clear,290,2013-05-08 22:53:00
7:53 PM,75.0,55.9,51,30.09,10.0,NW,8.1,-,N/A,,Clear,320,2013-05-08 23:53:00
8:53 PM,73.0,60.1,64,30.11,10.0,NW,5.8,-,N/A,,Clear,310,2013-05-09 00:53:00
9:53 PM,72.0,60.1,66,30.13,10.0,NNW,8.1,-,N/A,,Clear,330,2013-05-09 01:53:00
10:53 PM,70.0,59.0,68,30.14,10.0,North,4.6,-,N/A,,Clear,350,2013-05-09 02:53:00
11:53 PM,70.0,59.0,68,30.14,10.0,North,4.6,-,N/A,,Clear,350,2013-05-09 03:53:00